Wind_Speed
27 27 27 26 24 22 23 22 19 16 15 15 15 17 18 18 18 16 15 14 13 13 13 13 13 11 9 10 10 10 10 10
31 29 30 29 26 24 23 22 20 18 17 16 16 17 20 20 20 20 19 19 17 14 13 13 12 11 10 10 10 11 12 14
34 33 33 31 29 26 23 23 22 20 20 18 18 18 19 22 23 24 23 22 22 20 18 18 18 17 16 15 14 16 19 19
35 35 36 33 32 29 24 24 23 22 22 20 20 19 19 22 25 26 26 25 24 24 23 24 24 23 22 21 20 20 21 21
36 36 37 35 33 33 28 25 26 25 25 25 24 23 22 24 25 28 28 27 26 28 27 26 27 29 27 27 27 27 25 22
37 37 38 37 36 33 32 27 27 27 28 29 28 29 27 27 29 30 29 27 26 27 28 28 28 28 27 31 31 32 31 28
37 38 38 37 36 36 34 30 29 29 32 31 30 30 31 30 33 33 29 28 27 26 28 29 29 28 26 27 26 29 30 29
37 38 37 36 35 37 36 34 30 30 31 32 31 29 33 36 36 34 29 28 27 25 26 28 29 28 26 27 28 30 30 30
36 36 36 34 35 35 35 35 32 31 33 33 32 31 34 37 38 33 29 26 27 26 27 28 28 28 29 30 30 31 31 33
32 34 32 32 34 34 35 36 34 32 33 34 32 33 34 36 37 34 27 27 28 27 28 29 28 28 29 30 31 31 32 30
29 30 32 34 34 35 38 39 35 33 32 34 34 34 35 37 34 32 29 28 29 27 27 27 28 29 28 29 29 30 31 30
29 30 33 35 35 39 42 42 37 32 32 34 35 36 36 35 33 31 29 30 30 29 27 27 28 28 28 30 30 32 32 32
29 30 34 37 39 42 44 43 39 34 33 34 36 38 37 35 32 29 29 29 31 32 31 29 30 29 31 32 33 34 35 36
33 33 35 38 41 43 44 43 40 36 36 38 37 38 38 35 32 31 31 30 31 32 31 30 31 30 32 33 34 36 38 38
31 33 36 40 43 44 45 44 41 40 41 41 38 39 41 38 35 33 33 34 33 33 33 32 33 33 34 35 36 38 39 40
30 34 36 39 41 43 45 45 44 44 45 44 42 42 43 42 41 37 35 38 38 38 37 36 37 37 39 38 39 41 41 41
32 35 39 40 41 43 44 45 45 49 49 48 48 48 47 46 45 45 44 40 40 41 42 43 42 42 42 42 42 44 45 45
40 35 40 44 44 44 44 48 48 48 51 52 52 52 52 51 50 50 51 51 48 45 44 46 47 46 47 45 44 46 47 49
43 41 43 43 50 51 49 50 53 53 53 56 55 56 56 57 56 54 53 54 55 53 51 50 51 51 50 49 49 48 47 47
46 44 52 62 59 57 52 53 58 58 59 59 59 60 61 60 58 58 57 56 56 57 58 57 54 52 52 53 53 47 43 41
Wind_Direction
297 297 298 299 301 300 299 302 305 306 305 306 311 313 309 307 305 301 301 298 293 286 278 272 268 264 259 264 270 269 264 264
296 296 296 297 299 298 296 298 302 303 303 306 308 305 305 306 303 303 297 289 285 282 275 269 264 261 257 258 264 273 272 268
295 294 294 295 296 297 295 295 298 299 301 304 302 304 306 304 301 297 292 288 283 274 269 263 262 259 258 257 261 269 269 274
292 291 290 291 293 295 295 295 293 295 297 293 295 299 303 303 301 296 290 286 280 274 272 266 263 262 260 260 259 259 266 272
289 290 288 288 290 293 293 292 291 291 290 292 292 292 295 299 303 299 289 283 278 274 272 272 269 263 262 263 265 267 266 269
286 286 286 285 288 290 288 288 287 285 287 289 291 293 291 294 303 305 294 283 276 271 271 272 273 272 266 264 267 271 272 267
284 284 284 284 288 288 289 288 282 283 285 287 289 291 292 297 302 302 292 282 273 267 265 268 272 273 270 267 270 270 270 268
282 282 282 283 285 289 292 287 286 281 281 282 286 286 295 300 300 298 289 281 276 272 267 268 268 268 270 269 266 266 268 267
279 277 277 281 286 291 288 286 284 281 282 280 282 285 294 296 298 294 287 282 277 274 272 270 268 268 268 268 269 268 267 267
273 272 276 279 281 283 282 280 279 280 280 280 278 286 291 296 295 290 284 278 277 275 274 272 271 269 268 271 271 271 270 271
269 269 271 273 275 278 277 276 278 276 276 278 278 282 290 298 293 286 283 274 273 273 274 276 275 272 271 271 271 271 272 273
273 270 270 272 275 279 275 274 274 273 274 275 277 281 289 294 290 283 279 274 272 270 271 274 274 274 273 272 273 273 274 273
269 264 265 268 272 272 272 273 273 273 274 274 278 283 288 288 286 276 272 272 270 269 268 270 270 272 273 275 275 275 275 274
267 260 257 258 261 264 267 269 270 273 272 273 277 284 287 285 281 277 270 269 270 270 268 269 269 272 273 273 273 274 275 275
266 263 256 256 260 264 265 264 266 269 272 275 280 283 286 286 280 278 273 273 275 274 272 272 272 271 271 271 272 273 276 276
269 265 263 262 264 266 266 268 270 271 274 276 279 282 282 284 283 279 275 273 275 277 276 275 274 276 275 276 276 275 275 275
282 269 269 267 265 266 271 270 269 272 274 277 281 282 281 281 282 282 280 274 273 274 275 277 280 281 281 281 280 278 279 280
276 269 265 266 273 275 275 273 270 271 273 274 276 278 278 278 277 275 277 278 275 274 275 278 280 280 282 282 280 280 281 282
274 271 259 271 280 277 273 272 271 270 270 270 271 271 272 272 272 273 274 275 277 278 277 276 277 280 283 282 281 280 281 283
263 265 279 287 283 280 276 272 269 268 269 268 269 269 269 270 272 271 271 272 274 275 276 278 279 283 284 285 287 286 280 277
Height
5881 5879 5877 5876 5875 5874 5872 5871 5870 5869 5868 5867 5865 5865 5864 5863 5863 5862 5861 5861 5860 5858 5858 5858 5857 5856 5855 5856 5856 5856 5856 5856
5877 5875 5874 5872 5871 5870 5869 5868 5866 5865 5864 5864 5863 5862 5861 5860 5859 5858 5857 5857 5857 5856 5856 5855 5855 5855 5854 5853 5853 5853 5854 5854
5873 5871 5869 5868 5866 5865 5865 5864 5863 5862 5861 5861 5860 5859 5859 5857 5856 5854 5853 5853 5853 5852 5852 5852 5852 5852 5851 5851 5850 5850 5849 5851
5867 5865 5863 5862 5861 5861 5861 5860 5859 5859 5858 5856 5856 5855 5855 5853 5852 5850 5849 5848 5847 5848 5848 5847 5847 5848 5848 5847 5846 5844 5845 5847
5860 5859 5858 5857 5856 5856 5856 5856 5855 5854 5853 5852 5851 5851 5850 5848 5846 5845 5843 5842 5841 5841 5842 5842 5841 5841 5843 5842 5841 5839 5840 5842
5854 5852 5852 5851 5850 5851 5850 5851 5850 5848 5847 5847 5845 5844 5843 5842 5840 5838 5836 5835 5834 5834 5835 5836 5835 5835 5836 5836 5835 5834 5833 5835
5846 5846 5845 5844 5845 5844 5843 5844 5844 5842 5839 5839 5839 5838 5835 5835 5833 5831 5829 5828 5826 5826 5827 5828 5828 5828 5829 5828 5830 5828 5827 5827
5838 5838 5838 5838 5838 5836 5836 5835 5837 5836 5834 5833 5833 5832 5829 5826 5825 5824 5822 5821 5820 5820 5820 5820 5820 5821 5821 5822 5822 5821 5821 5821
5831 5830 5829 5830 5830 5829 5828 5827 5829 5827 5826 5824 5825 5824 5824 5821 5817 5815 5815 5814 5814 5814 5814 5813 5814 5814 5815 5814 5814 5815 5815 5813
5821 5821 5821 5821 5820 5820 5819 5818 5819 5820 5819 5817 5816 5816 5815 5813 5810 5808 5808 5807 5807 5807 5807 5807 5807 5807 5807 5807 5808 5807 5807 5808
5812 5812 5812 5811 5811 5811 5809 5809 5811 5812 5811 5809 5809 5808 5807 5806 5802 5801 5801 5800 5800 5800 5800 5800 5800 5799 5800 5799 5799 5800 5800 5801
5803 5804 5803 5802 5802 5802 5800 5800 5801 5803 5803 5801 5800 5799 5799 5797 5795 5794 5794 5793 5793 5792 5792 5792 5792 5792 5792 5791 5791 5791 5792 5793
5795 5795 5794 5793 5793 5791 5790 5790 5792 5794 5794 5792 5792 5791 5791 5789 5787 5787 5787 5786 5786 5785 5784 5784 5783 5783 5783 5783 5782 5782 5783 5782
5785 5785 5784 5782 5781 5780 5780 5780 5782 5783 5782 5781 5782 5781 5780 5781 5779 5778 5778 5777 5777 5777 5776 5775 5774 5774 5774 5773 5772 5772 5772 5773
5776 5775 5773 5771 5770 5771 5770 5770 5772 5771 5770 5770 5771 5771 5770 5771 5770 5770 5770 5769 5769 5768 5768 5768 5766 5765 5763 5763 5762 5761 5763 5763
5767 5766 5765 5763 5763 5762 5762 5763 5763 5762 5760 5760 5761 5760 5759 5760 5760 5761 5761 5760 5759 5759 5759 5759 5757 5755 5754 5753 5752 5751 5751 5752
5757 5758 5756 5754 5752 5753 5754 5753 5752 5752 5752 5751 5750 5750 5749 5749 5749 5749 5749 5750 5749 5749 5749 5748 5747 5746 5744 5744 5741 5739 5738 5738
5746 5747 5746 5744 5744 5744 5743 5743 5741 5739 5741 5741 5739 5738 5737 5737 5737 5736 5736 5736 5735 5736 5736 5737 5736 5735 5733 5733 5731 5728 5727 5725
5736 5735 5734 5733 5733 5732 5731 5729 5729 5729 5728 5728 5726 5725 5724 5723 5724 5724 5723 5722 5723 5723 5723 5722 5723 5722 5722 5721 5720 5717 5715 5713
5726 5722 5719 5719 5720 5718 5716 5715 5713 5715 5715 5714 5712 5711 5710 5710 5711 5710 5709 5708 5708 5708 5708 5707 5708 5709 5709 5707 5707 5705 5703 5700